CDT,Max TemperatureF,Mean TemperatureF,Min TemperatureF,Max Dew PointF,MeanDew PointF,Min DewpointF,Max Humidity, Mean Humidity, Min Humidity, Max Sea Level PressureIn, Mean Sea Level PressureIn, Min Sea Level PressureIn, Max VisibilityMiles, Mean VisibilityMiles, Min VisibilityMiles, Max Wind SpeedMPH, Mean Wind SpeedMPH, Max Gust SpeedMPH,PrecipitationIn, CloudCover, Events, WindDirDegrees
2013-8-1,96,87,77,78,75,72,91,69,46,30.04,29.99,29.92,10,10,10,13,5,17,0.00,2,,262
2013-8-2,96,88,80,77,75,73,85,69,52,30.01,29.97,29.93,10,10,9,15,5,21,0.00,2,,251
2013-8-3,95,86,77,77,74,71,91,70,49,30.07,30.03,30.00,10,10,9,12,4,17,0.00,2,,224
2013-8-4,95,86,77,77,75,72,91,72,52,30.11,30.06,30.01,10,8,0,17,2,29,1.14,4,Rain-Thunderstorm,311
2013-8-5,93,86,79,77,75,72,91,74,56,30.07,30.02,29.96,10,10,10,16,6,22,T,1,,240
2013-8-6,95,87,78,77,75,72,91,70,49,30.02,29.97,29.91,10,10,10,16,7,21,0.00,1,,228
2013-8-7,95,86,76,77,74,70,94,69,43,29.99,29.94,29.88,10,10,9,14,5,16,0.00,2,,228
2013-8-8,95,85,75,78,75,71,94,72,49,29.97,29.93,29.88,10,9,5,10,3,13,0.00,1,,213
2013-8-9,95,86,77,77,75,71,91,72,52,30.01,29.95,29.92,10,10,8,15,3,21,0.00,1,Thunderstorm,90
2013-8-10,92,85,77,78,75,70,91,75,59,30.06,30.03,29.99,10,10,9,17,4,24,T,1,Thunderstorm,96
2013-8-11,89,82,75,77,75,73,94,79,63,30.11,30.07,30.04,10,10,4,14,3,16,0.14,1,Rain-Thunderstorm,127
2013-8-12,94,85,76,78,75,72,97,75,52,30.10,30.06,30.01,10,10,7,14,3,18,0.00,1,Thunderstorm,191
2013-8-13,96,85,74,77,74,71,97,72,46,30.04,29.99,29.92,10,10,10,25,8,31,0.00,3,Thunderstorm,236
2013-8-14,84,79,74,77,73,70,94,88,82,30.00,29.97,29.93,10,7,1,20,5,25,1.05,5,Rain,235
2013-8-15,89,82,74,74,72,69,100,78,55,30.01,29.96,29.93,10,8,2,12,4,15,0.00,4,,21
2013-8-16,90,81,72,72,69,65,93,69,44,30.00,29.96,29.93,10,10,6,13,5,18,0.00,1,,27
2013-8-17,89,79,69,72,69,65,87,69,50,29.98,29.95,29.91,10,10,10,15,7,18,0.00,1,,29
2013-8-18,88,80,71,73,70,68,93,74,55,30.03,29.99,29.95,10,9,6,16,6,21,0.00,1,,27
2013-8-19,88,79,70,73,71,69,100,80,59,30.06,30.02,29.97,10,8,0,9,4,14,0.00,3,Fog,29
2013-8-20,89,81,73,76,73,71,100,80,59,30.05,30.02,29.98,10,7,0,15,2,21,0.03,3,Fog-Rain-Thunderstorm,27
2013-8-21,93,83,73,76,73,70,94,73,52,30.11,30.06,30.03,10,10,8,14,3,21,T,2,Thunderstorm,91
2013-8-22,93,84,74,77,74,72,100,76,52,30.09,30.04,29.96,10,10,8,10,3,14,0.00,1,,60
2013-8-23,94,85,75,76,73,71,94,72,49,30.01,29.97,29.91,10,10,10,13,5,21,0.00,1,,40
2013-8-24,88,81,73,76,73,71,94,78,61,30.08,30.02,29.97,10,10,10,14,6,22,0.02,3,Rain,62
2013-8-25,85,79,73,75,73,72,94,82,70,30.14,30.11,30.06,10,10,6,15,5,22,0.09,4,Rain,78
2013-8-26,88,81,74,74,73,72,100,80,59,30.18,30.13,30.10,10,9,0,20,3,24,1.29,5,Fog-Rain-Thunderstorm,100
2013-8-27,91,82,73,73,71,66,100,74,47,30.13,30.08,30.03,10,8,1,10,2,14,0.00,2,,46
2013-8-28,90,81,72,73,70,67,94,71,47,30.10,30.05,30.01,10,9,7,8,2,13,0.00,1,,63
2013-8-29,91,81,71,73,70,68,93,73,52,30.08,30.04,29.98,10,9,5,8,1,10,0.00,2,,70
2013-8-30,91,82,72,73,70,67,94,71,47,30.06,29.99,29.93,10,9,3,7,1,9,0.00,1,,158
2013-8-31,93,83,73,75,72,69,94,70,46,30.00,29.93,29.86,10,10,6,12,3,20,0.00,2,,217